Time,TemperatureF,DewpointF,PressureIn,WindDirection,WindDirectionDegrees,WindSpeedMPH,WindSpeedGustMPH,Humidity,HourlyPrecipIn,Conditions,Clouds,dailyrainin,SoftwareType,DateUTC
2013-10-15 00:22:00,53.0,33.0,-100.00,SSE,165,8.0,12.0,46,0.00,,,-99.99,,2013-10-15 05:22:00,
2013-10-15 00:42:00,54.0,34.0,-100.00,South,180,9.0,13.0,47,0.00,,,-99.99,,2013-10-15 05:42:00,
2013-10-15 01:22:00,54.0,35.0,-100.00,South,185,7.0,14.0,48,0.00,,,-99.99,,2013-10-15 06:22:00,
2013-10-15 01:43:00,54.0,36.0,-100.00,South,175,10.0,17.0,50,0.04,,,-99.99,,2013-10-15 06:43:00,
2013-10-15 03:21:00,57.0,44.0,-100.00,South,190,12.0,16.0,61,0.04,,,-99.99,,2013-10-15 08:21:00,
2013-10-15 03:42:00,56.0,45.0,-100.00,South,180,9.0,17.0,65,0.00,,,-99.99,,2013-10-15 08:42:00,
2013-10-15 04:22:00,57.0,46.0,-100.00,South,190,12.0,18.0,66,0.00,,,-99.99,,2013-10-15 09:22:00,
2013-10-15 04:42:00,57.0,46.0,-100.00,South,185,9.0,16.0,67,0.00,,,-99.99,,2013-10-15 09:42:00,
2013-10-15 05:23:00,56.0,49.0,-100.00,South,190,9.0,14.0,75,0.00,,,-99.99,,2013-10-15 10:23:00,
2013-10-15 05:42:00,57.0,49.0,-100.00,SSW,200,9.0,13.0,76,0.06,,,-99.99,,2013-10-15 10:42:00,
2013-10-15 06:22:00,56.0,51.0,-100.00,SW,215,9.0,14.0,83,0.08,,,-99.99,,2013-10-15 11:22:00,
2013-10-15 06:42:00,56.0,52.0,-100.00,SSW,210,13.0,19.0,85,0.00,,,-99.99,,2013-10-15 11:42:00,
2013-10-15 07:22:00,57.0,53.0,-100.00,SSW,210,17.0,26.0,87,0.03,,,-99.99,,2013-10-15 12:22:00,
2013-10-15 07:42:00,58.0,54.0,-100.00,SSW,210,12.0,26.0,87,0.00,,,-99.99,,2013-10-15 12:42:00,
2013-10-15 08:21:00,58.0,55.0,-100.00,SW,225,9.0,17.0,87,0.00,,,-99.99,,2013-10-15 13:21:00,
2013-10-15 08:42:00,59.0,55.0,-100.00,SW,215,10.0,20.0,87,0.04,,,-99.99,,2013-10-15 13:42:00,
2013-10-15 09:22:00,58.0,55.0,-100.00,SW,225,10.0,21.0,87,0.04,,,-99.99,,2013-10-15 14:22:00,
2013-10-15 09:42:00,59.0,55.0,-100.00,SW,220,9.0,14.0,87,0.00,,,-99.99,,2013-10-15 14:42:00,
2013-10-15 10:22:00,59.0,56.0,-100.00,SW,235,7.0,14.0,87,0.00,,,-99.99,,2013-10-15 15:22:00,
2013-10-15 10:43:00,60.0,56.0,-100.00,WSW,240,9.0,15.0,87,0.00,,,-99.99,,2013-10-15 15:43:00,
2013-10-15 11:23:00,61.0,57.0,-100.00,WSW,250,6.0,13.0,87,0.00,,,-99.99,,2013-10-15 16:23:00,
2013-10-15 11:42:00,62.0,58.0,-100.00,West,260,7.0,16.0,87,0.00,,,-99.99,,2013-10-15 16:42:00,
2013-10-15 12:22:00,64.0,60.0,-100.00,West,265,9.0,15.0,87,0.00,,,-99.99,,2013-10-15 17:22:00,
2013-10-15 12:42:00,64.0,59.0,-100.00,West,270,11.0,17.0,82,0.00,,,-99.99,,2013-10-15 17:42:00,
2013-10-15 13:21:00,62.0,52.0,-100.00,WNW,300,19.0,26.0,70,0.03,,,-99.99,,2013-10-15 18:21:00,
2013-10-15 13:42:00,64.0,51.0,-100.00,WNW,290,15.0,21.0,64,0.00,,,-99.99,,2013-10-15 18:42:00,
2013-10-15 14:21:00,63.0,50.0,-100.00,WNW,295,16.0,25.0,63,0.00,,,-99.99,,2013-10-15 19:21:00,
2013-10-15 14:42:00,65.0,48.0,-100.00,WNW,300,17.0,25.0,54,0.00,,,-99.99,,2013-10-15 19:42:00,
2013-10-15 15:22:00,67.0,44.0,-100.00,WNW,300,19.0,26.0,43,0.00,,,-99.99,,2013-10-15 20:22:00,
2013-10-15 16:22:00,64.0,39.0,-100.00,WNW,300,19.0,27.0,39,0.00,,,-99.99,,2013-10-15 21:22:00,
2013-10-15 16:44:00,63.0,39.0,-100.00,NW,315,13.0,25.0,41,0.00,,,-99.99,,2013-10-15 21:44:00,
2013-10-15 17:23:00,61.0,37.0,-100.00,NW,305,16.0,25.0,40,0.00,,,-99.99,,2013-10-15 22:23:00,
2013-10-15 17:43:00,61.0,37.0,-100.00,NW,310,17.0,23.0,42,0.04,,,-99.99,,2013-10-15 22:43:00,
2013-10-15 18:22:00,58.0,36.0,-100.00,NW,305,10.0,19.0,44,0.03,,,-99.99,,2013-10-15 23:22:00,
2013-10-15 18:43:00,56.0,36.0,-100.00,NW,305,12.0,20.0,45,0.03,,,-99.99,,2013-10-15 23:43:00,
2013-10-15 19:22:00,56.0,37.0,-100.00,NW,305,9.0,17.0,48,0.00,,,-99.99,,2013-10-16 00:22:00,
2013-10-15 19:42:00,55.0,36.0,-100.00,NW,315,12.0,17.0,49,0.00,,,-99.99,,2013-10-16 00:42:00,
2013-10-15 20:22:00,51.0,36.0,-100.00,NW,305,12.0,17.0,56,0.00,,,-99.99,,2013-10-16 01:22:00,
2013-10-15 20:42:00,51.0,37.0,-100.00,NW,305,14.0,19.0,58,0.00,,,-99.99,,2013-10-16 01:42:00,
2013-10-15 21:22:00,51.0,37.0,-100.00,NW,315,16.0,22.0,59,0.00,,,-99.99,,2013-10-16 02:22:00,
2013-10-15 21:42:00,50.0,37.0,-100.00,WNW,295,17.0,23.0,60,0.00,,,-99.99,,2013-10-16 02:42:00,
2013-10-15 22:22:00,51.0,38.0,-100.00,WNW,300,15.0,21.0,60,0.00,,,-99.99,,2013-10-16 03:22:00,
2013-10-15 22:44:00,51.0,38.0,-100.00,WNW,295,15.0,20.0,60,0.00,,,-99.99,,2013-10-16 03:44:00,
2013-10-15 23:24:00,51.0,38.0,-100.00,NW,305,14.0,24.0,61,0.00,,,-99.99,,2013-10-16 04:24:00,
2013-10-15 23:43:00,51.0,38.0,-100.00,WNW,300,13.0,21.0,62,0.00,,,-99.99,,2013-10-16 04:43:00,